Sitka, AK

5:01 AM AKDT on September 29, 2016 (GMT -0800)
Sitka Rocky Gutierrez

Weather History for PASI - July, 2014

Change the Weather History Date:

Wednesday, July 9, 2014

  Actual Average Record
Temperature  
Mean Temperature 55 °F -  
Max Temperature 57 °F 60 °F 80 °F (1971)
Min Temperature 53 °F 51 °F 45 °F (1956)
Degree Days  
Heating Degree Days 10    
Growing Degree Days 5 (Base 50)    
Moisture  
Dew Point 54 °F    
Average Humidity 96    
Maximum Humidity 100    
Minimum Humidity 83    
Precipitation  
Precipitation 0.13 in - - ()
Sea Level Pressure  
Sea Level Pressure 30.18 in    
Wind  
Wind Speed 5 mph (SSW)    
Max Wind Speed 9 mph    
Max Gust Speed -    
Visibility 7 miles    
Events Rain    
Averages and records for this station are not official NWS values.
T = Trace of Precipitation, MM = Missing Value Source: NWS Daily Summary

Daily Weather History Graph

Daily Weather History Graph

Search for Another Location

Airport or City:

Trip Planner

Search our weather history database for the weather conditions in past years. The results will help you decide how hot, cold, wet, or windy it might be!

Date:

Astronomy

Jul. 09, 2014 Rise Set
Actual Time 4:20 AM AKDT 9:51 PM AKDT
Civil Twilight 3:17 AM AKDT 10:54 PM AKDT
Nautical Twilight 1:39 AM AKDT 12:34 AM AKDT
Astronomical Twilight Sun does not set Sun does not set
Moon 6:54 PM AKDT (7/9) 2:06 AM AKDT (7/9)
Length of Visible Light 19h 37m
Length of Day
17h 31m
Waxing Gibbous, 90% of the Moon is Illuminated
Jul 9
Waxing Gibbous
Jul 12
Full
Jul 18
Last Quarter
Jul 26
New
Aug 3
First Quarter

Hourly Weather History & Observations

Time (AKDT) Temp. Dew Point Humidity Pressure Visibility Wind Dir Wind Speed Gust Speed Precip Events Conditions
12:53 AM 54.0 °F 54.0 °F 100% 30.11 in 10.0 mi SW 6.9 mph - 0.00 in   Overcast
1:10 AM 54.0 °F 53.1 °F 97% 30.11 in 10.0 mi SSW 5.8 mph - N/A   Overcast
1:41 AM 54.0 °F 53.1 °F 97% 30.11 in 10.0 mi SSW 5.8 mph - N/A   Overcast
1:53 AM 54.0 °F 53.1 °F 97% 30.12 in 10.0 mi SSW 5.8 mph - N/A   Overcast
2:45 AM 54.0 °F 54.0 °F 100% 30.12 in 10.0 mi SSW 5.8 mph - N/A   Overcast
2:53 AM 54.0 °F 53.1 °F 97% 30.12 in 10.0 mi SW 5.8 mph - N/A   Overcast
3:28 AM 54.0 °F 53.1 °F 97% 30.12 in 10.0 mi SW 5.8 mph - N/A   Overcast
3:53 AM 54.0 °F 53.1 °F 97% 30.13 in 10.0 mi South 3.5 mph - N/A   Overcast
4:02 AM 54.0 °F 53.1 °F 97% 30.13 in 10.0 mi SSW 3.5 mph - N/A   Overcast
4:38 AM 54.0 °F 53.1 °F 97% 30.13 in 10.0 mi North - - N/A   Overcast
4:53 AM 54.0 °F 53.1 °F 97% 30.14 in 10.0 mi SSW 5.8 mph - N/A   Overcast
5:06 AM 54.0 °F 53.1 °F 97% 30.14 in 10.0 mi South 4.6 mph - N/A   Overcast
5:34 AM 54.0 °F 53.1 °F 97% 30.14 in 10.0 mi South 4.6 mph - N/A   Overcast
5:41 AM 54.0 °F 53.1 °F 97% 30.15 in 10.0 mi South 4.6 mph - N/A   Overcast
5:53 AM 54.0 °F 53.1 °F 97% 30.15 in 10.0 mi South 3.5 mph - N/A   Overcast
6:24 AM 54.0 °F 52.0 °F 93% 30.15 in 10.0 mi SE 3.5 mph - N/A   Overcast
6:47 AM 53.6 °F 53.6 °F 100% 30.15 in 2.0 mi SE 3.5 mph - 0.00 in Rain Light Rain
6:53 AM 54.0 °F 52.0 °F 93% 30.16 in 2.0 mi SE 4.6 mph - 0.01 in Rain Light Rain
7:11 AM 54.0 °F 53.1 °F 97% 30.15 in 2.5 mi SSE 3.5 mph - 0.00 in Rain Light Rain
7:18 AM 54.0 °F 53.1 °F 97% 30.16 in 2.0 mi SSE 3.5 mph - 0.00 in Rain Light Rain
7:35 AM 54.0 °F 53.1 °F 97% 30.16 in 3.0 mi SE 4.6 mph - 0.01 in Rain Light Rain
7:53 AM 54.0 °F 53.1 °F 97% 30.17 in 5.0 mi SE 4.6 mph - 0.02 in Rain Light Rain
8:03 AM 54.0 °F 53.1 °F 97% 30.16 in 7.0 mi SE 3.5 mph - 0.00 in   Overcast
8:53 AM 54.0 °F 53.1 °F 97% 30.17 in 3.0 mi Calm Calm - 0.00 in Rain Light Rain
9:53 AM 54.0 °F 52.0 °F 93% 30.18 in 6.0 mi WSW 8.1 mph - 0.02 in Rain Light Rain
10:53 AM 55.9 °F 54.0 °F 93% 30.19 in 10.0 mi SSW 5.8 mph - 0.00 in   Overcast
11:09 AM 55.9 °F 55.0 °F 97% 30.19 in 9.0 mi SSW 6.9 mph - N/A   Overcast
11:40 AM 55.0 °F 54.0 °F 96% 30.20 in 2.0 mi SSW 8.1 mph - 0.00 in Rain Light Rain
11:53 AM 55.9 °F 55.0 °F 97% 30.20 in 2.5 mi SSW 6.9 mph - 0.00 in Rain Light Rain
12:24 PM 55.9 °F 55.0 °F 97% 30.20 in 1.5 mi SSW 8.1 mph - 0.01 in Rain Light Rain
12:45 PM 55.9 °F 55.0 °F 97% 30.21 in 2.5 mi SW 9.2 mph - 0.02 in Rain Light Rain
12:51 PM 55.4 °F 53.6 °F 94% 30.21 in 4.0 mi WSW 6.9 mph - 0.02 in   Overcast
12:53 PM 55.0 °F 54.0 °F 96% 30.21 in 2.5 mi WSW 8.1 mph - 0.02 in   Overcast
1:03 PM 55.0 °F 54.0 °F 96% 30.21 in 2.0 mi West 8.1 mph - 0.01 in Rain Light Rain
1:11 PM 55.9 °F 55.9 °F 100% 30.21 in 1.5 mi WNW 8.1 mph - 0.01 in Rain Light Rain
1:29 PM 55.0 °F 55.0 °F 100% 30.21 in 2.5 mi WSW 4.6 mph - 0.02 in Rain Light Rain
1:32 PM 55.0 °F 55.0 °F 100% 30.21 in 2.0 mi WSW 5.8 mph - 0.03 in Rain Light Rain
1:41 PM 55.0 °F 54.0 °F 96% 30.21 in 1.5 mi WSW 6.9 mph - 0.03 in Rain Light Rain
1:49 PM 55.4 °F 55.4 °F 100% 30.22 in 3.0 mi SW 3.5 mph - 0.04 in Rain Light Rain
1:53 PM 55.9 °F 55.0 °F 97% 30.22 in 5.0 mi WSW 3.5 mph - 0.04 in Rain Light Rain
2:53 PM 55.0 °F 53.1 °F 93% 30.23 in 10.0 mi NW 8.1 mph - 0.00 in   Overcast
3:53 PM 57.0 °F 52.0 °F 83% 30.23 in 10.0 mi NW 3.5 mph - N/A   Overcast
4:53 PM 55.9 °F 53.1 °F 90% 30.23 in 10.0 mi SSW 5.8 mph - N/A   Overcast
5:53 PM 55.0 °F 54.0 °F 96% 30.23 in 10.0 mi South 3.5 mph - 0.01 in Rain Light Rain
6:00 PM 55.9 °F 54.0 °F 93% 30.22 in 10.0 mi Calm Calm - 0.00 in   Overcast
6:53 PM 55.9 °F 54.0 °F 93% 30.22 in 10.0 mi Calm Calm - 0.00 in   Overcast
7:53 PM 55.9 °F 54.0 °F 93% 30.22 in 10.0 mi WSW 4.6 mph - N/A   Overcast
8:53 PM 55.0 °F 53.1 °F 93% 30.23 in 10.0 mi SSE 3.5 mph - N/A   Overcast
9:53 PM 55.0 °F 53.1 °F 93% 30.24 in 10.0 mi Calm Calm - N/A   Overcast
10:14 PM 55.0 °F 53.1 °F 93% 30.23 in 10.0 mi Calm Calm - N/A   Overcast
10:53 PM 55.0 °F 53.1 °F 93% 30.24 in 10.0 mi Calm Calm - N/A   Overcast
11:45 PM 54.0 °F 53.1 °F 97% 30.23 in 10.0 mi East 3.5 mph - 0.01 in   Overcast
11:53 PM 54.0 °F 53.1 °F 97% 30.23 in 10.0 mi ESE 3.5 mph - 0.01 in   Overcast